Time,TemperatureF,DewpointF,PressureIn,WindDirection,WindDirectionDegrees,WindSpeedMPH,WindSpeedGustMPH,Humidity,HourlyPrecipIn,Conditions,Clouds,dailyrainin,SoftwareType,DateUTC
2013-05-02 04:58:00,44.1,29.8,30.15,East,81,1.0,4.0,57,0.00,,,-99.99,FreeWX 2.04,2013-05-02 08:58:00,
2013-05-02 08:20:00,48.6,30.2,30.18,ENE,77,2.0,6.3,49,0.00,,,-99.99,FreeWX 2.04,2013-05-02 12:20:00,
2013-05-02 08:25:00,49.6,30.2,30.18,ENE,75,1.0,4.9,47,0.00,,,-99.99,FreeWX 2.04,2013-05-02 12:25:00,
2013-05-02 08:30:00,50.4,28.8,30.18,East,79,1.0,6.3,43,0.00,,,-99.99,FreeWX 2.04,2013-05-02 12:30:00,
2013-05-02 08:35:00,51.1,30.0,30.21,East,80,1.0,3.1,44,0.00,,,-99.99,FreeWX 2.04,2013-05-02 12:35:00,
2013-05-02 08:40:00,51.3,27.1,30.21,ENE,76,1.0,6.3,39,0.00,,,-99.99,FreeWX 2.04,2013-05-02 12:40:00,
2013-05-02 08:45:00,51.8,27.0,30.21,East,85,2.0,4.5,38,0.00,,,-99.99,FreeWX 2.04,2013-05-02 12:45:00,
2013-05-02 08:50:00,52.3,26.8,30.21,East,87,3.0,6.3,37,0.00,,,-99.99,FreeWX 2.04,2013-05-02 12:50:00,
2013-05-02 08:55:00,53.1,27.5,30.21,ENE,78,2.0,4.0,37,0.00,,,-99.99,FreeWX 2.04,2013-05-02 12:55:00,
2013-05-02 09:00:00,53.8,28.0,30.21,East,81,2.0,5.8,37,0.00,,,-99.99,FreeWX 2.04,2013-05-02 13:00:00,
2013-05-02 09:05:00,54.3,27.9,30.21,East,83,2.0,7.8,36,0.00,,,-99.99,FreeWX 2.04,2013-05-02 13:05:00,
2013-05-02 09:10:00,54.7,28.2,30.21,East,80,2.0,5.4,36,0.00,,,-99.99,FreeWX 2.04,2013-05-02 13:10:00,
2013-05-02 09:15:00,55.4,28.2,30.21,East,84,2.0,6.3,35,0.00,,,-99.99,FreeWX 2.04,2013-05-02 13:15:00,
2013-05-02 09:20:00,56.1,28.8,30.21,East,88,2.0,3.6,35,0.00,,,-99.99,FreeWX 2.04,2013-05-02 13:20:00,
2013-05-02 09:25:00,57.4,27.9,30.21,East,92,1.0,5.4,32,0.00,,,-99.99,FreeWX 2.04,2013-05-02 13:25:00,
2013-05-02 09:30:00,57.6,27.1,30.21,East,89,2.0,4.9,31,0.00,,,-99.99,FreeWX 2.04,2013-05-02 13:30:00,
2013-05-02 09:35:00,58.6,27.3,30.18,East,92,2.0,4.5,30,0.00,,,-99.99,FreeWX 2.04,2013-05-02 13:35:00,
2013-05-02 09:40:00,59.2,27.0,30.18,East,98,2.0,4.9,29,0.00,,,-99.99,FreeWX 2.04,2013-05-02 13:40:00,
2013-05-02 09:45:00,59.5,27.3,30.18,East,91,2.0,5.8,29,0.00,,,-99.99,FreeWX 2.04,2013-05-02 13:45:00,
2013-05-02 09:50:00,60.1,27.0,30.18,East,99,2.0,4.9,28,0.00,,,-99.99,FreeWX 2.04,2013-05-02 13:50:00,
2013-05-02 09:55:00,59.5,25.5,30.18,East,86,2.0,4.9,27,0.00,,,-99.99,FreeWX 2.04,2013-05-02 13:55:00,
2013-05-02 10:00:00,59.2,26.1,30.18,ENE,73,2.0,6.9,28,0.00,,,-99.99,FreeWX 2.04,2013-05-02 14:00:00,
2013-05-02 10:05:00,59.2,25.2,30.18,East,93,3.0,6.7,27,0.00,,,-99.99,FreeWX 2.04,2013-05-02 14:05:00,
2013-05-02 10:10:00,58.6,25.7,30.18,East,93,3.0,6.7,28,0.00,,,-99.99,FreeWX 2.04,2013-05-02 14:10:00,
2013-05-02 10:15:00,58.6,25.7,30.18,East,92,3.0,7.8,28,0.00,,,-99.99,FreeWX 2.04,2013-05-02 14:15:00,
2013-05-02 10:20:00,58.1,25.2,30.18,East,97,4.0,6.9,28,0.00,,,-99.99,FreeWX 2.04,2013-05-02 14:20:00,
2013-05-02 10:25:00,58.1,25.2,30.18,East,92,4.0,6.7,28,0.00,,,-99.99,FreeWX 2.04,2013-05-02 14:25:00,
2013-05-02 10:30:00,58.1,24.3,30.18,East,94,3.0,6.7,27,0.00,,,-99.99,FreeWX 2.04,2013-05-02 14:30:00,
2013-05-02 10:35:00,57.9,24.1,30.18,East,92,4.0,6.9,27,0.00,,,-99.99,FreeWX 2.04,2013-05-02 14:35:00,
2013-05-02 10:40:00,58.3,24.4,30.18,East,91,3.0,6.7,27,0.00,,,-99.99,FreeWX 2.04,2013-05-02 14:40:00,
2013-05-02 10:45:00,58.6,24.8,30.18,East,96,3.0,6.9,27,0.00,,,-99.99,FreeWX 2.04,2013-05-02 14:45:00,
2013-05-02 10:50:00,58.1,23.4,30.21,East,90,4.0,7.4,26,0.00,,,-99.99,FreeWX 2.04,2013-05-02 14:50:00,
2013-05-02 10:55:00,57.7,24.8,30.21,East,87,4.0,6.9,28,0.00,,,-99.99,FreeWX 2.04,2013-05-02 14:55:00,
2013-05-02 11:00:00,57.4,24.6,30.21,East,91,4.0,7.4,28,0.00,,,-99.99,FreeWX 2.04,2013-05-02 15:00:00,
2013-05-02 11:05:00,57.6,26.4,30.21,East,90,3.0,6.9,30,0.00,,,-99.99,FreeWX 2.04,2013-05-02 15:05:00,
2013-05-02 11:10:00,57.9,25.9,30.21,East,87,3.0,6.7,29,0.00,,,-99.99,FreeWX 2.04,2013-05-02 15:10:00,
2013-05-02 11:15:00,58.1,26.1,30.21,East,94,3.0,4.9,29,0.00,,,-99.99,FreeWX 2.04,2013-05-02 15:15:00,
2013-05-02 11:20:00,58.3,27.0,30.18,East,97,2.0,6.9,30,0.00,,,-99.99,FreeWX 2.04,2013-05-02 15:20:00,
2013-05-02 11:25:00,59.0,26.8,30.18,East,94,3.0,5.8,29,0.00,,,-99.99,FreeWX 2.04,2013-05-02 15:25:00,
2013-05-02 11:30:00,58.6,25.7,30.18,East,89,3.0,6.7,28,0.00,,,-99.99,FreeWX 2.04,2013-05-02 15:30:00,
2013-05-02 11:35:00,58.3,27.0,30.18,East,90,4.0,6.9,30,0.00,,,-99.99,FreeWX 2.04,2013-05-02 15:35:00,
2013-05-02 11:40:00,58.5,27.9,30.18,East,94,4.0,5.8,31,0.00,,,-99.99,FreeWX 2.04,2013-05-02 15:40:00,
2013-05-02 11:45:00,58.3,26.2,30.18,East,89,4.0,7.4,29,0.00,,,-99.99,FreeWX 2.04,2013-05-02 15:45:00,
2013-05-02 11:50:00,57.6,27.1,30.18,ENE,77,4.0,6.7,31,0.00,,,-99.99,FreeWX 2.04,2013-05-02 15:50:00,
2013-05-02 11:55:00,58.5,29.5,30.18,East,79,3.0,5.4,33,0.00,,,-99.99,FreeWX 2.04,2013-05-02 15:55:00,
2013-05-02 12:00:00,58.1,26.1,30.18,East,83,3.0,6.3,29,0.00,,,-99.99,FreeWX 2.04,2013-05-02 16:00:00,
2013-05-02 12:05:00,58.1,28.4,30.18,East,85,3.0,4.9,32,0.00,,,-99.99,FreeWX 2.04,2013-05-02 16:05:00,
2013-05-02 12:10:00,58.6,28.0,30.18,East,85,3.0,5.4,31,0.00,,,-99.99,FreeWX 2.04,2013-05-02 16:10:00,
2013-05-02 12:16:00,59.0,27.7,30.18,East,87,3.0,5.4,30,0.00,,,-99.99,FreeWX 2.04,2013-05-02 16:16:00,
2013-05-02 12:21:00,59.4,27.9,30.18,ESE,102,3.0,5.8,30,0.00,,,-99.99,FreeWX 2.04,2013-05-02 16:21:00,
2013-05-02 12:26:00,59.7,27.5,30.18,East,101,3.0,5.8,29,0.00,,,-99.99,FreeWX 2.04,2013-05-02 16:26:00,
2013-05-02 12:31:00,59.4,26.2,30.18,East,94,3.0,6.7,28,0.00,,,-99.99,FreeWX 2.04,2013-05-02 16:31:00,
2013-05-02 12:36:00,58.3,27.0,30.18,East,95,4.0,6.3,30,0.00,,,-99.99,FreeWX 2.04,2013-05-02 16:36:00,
2013-05-02 12:41:00,58.6,27.3,30.18,East,95,3.0,5.4,30,0.00,,,-99.99,FreeWX 2.04,2013-05-02 16:41:00,
2013-05-02 12:46:00,58.5,27.9,30.18,East,92,3.0,6.7,31,0.00,,,-99.99,FreeWX 2.04,2013-05-02 16:46:00,
2013-05-02 12:51:00,59.2,27.7,30.18,East,98,3.0,6.7,30,0.00,,,-99.99,FreeWX 2.04,2013-05-02 16:51:00,
2013-05-02 12:56:00,60.4,27.1,30.18,ESE,116,3.0,6.3,28,0.00,,,-99.99,FreeWX 2.04,2013-05-02 16:56:00,
2013-05-02 13:01:00,61.2,26.1,30.18,ESE,117,2.0,5.4,26,0.00,,,-99.99,FreeWX 2.04,2013-05-02 17:01:00,
2013-05-02 13:06:00,61.3,25.2,30.18,ESE,118,2.0,6.3,25,0.00,,,-99.99,FreeWX 2.04,2013-05-02 17:06:00,
2013-05-02 13:11:00,61.9,25.7,30.18,ESE,119,3.0,6.7,25,0.00,,,-99.99,FreeWX 2.04,2013-05-02 17:11:00,
2013-05-02 13:16:00,61.9,24.6,30.18,ESE,116,3.0,6.7,24,0.00,,,-99.99,FreeWX 2.04,2013-05-02 17:16:00,
2013-05-02 13:21:00,62.8,25.5,30.18,ESE,117,2.0,6.9,24,0.00,,,-99.99,FreeWX 2.04,2013-05-02 17:21:00,
2013-05-02 13:26:00,62.6,25.3,30.18,ESE,110,2.0,5.4,24,0.00,,,-99.99,FreeWX 2.04,2013-05-02 17:26:00,
2013-05-02 13:31:00,62.8,25.5,30.18,ESE,118,2.0,5.8,24,0.00,,,-99.99,FreeWX 2.04,2013-05-02 17:31:00,
2013-05-02 13:36:00,61.0,23.9,30.15,ESE,116,3.0,6.9,24,0.00,,,-99.99,FreeWX 2.04,2013-05-02 17:36:00,
2013-05-02 13:41:00,61.0,25.0,30.15,ESE,103,3.0,6.7,25,0.00,,,-99.99,FreeWX 2.04,2013-05-02 17:41:00,
2013-05-02 13:46:00,62.1,24.8,30.15,ESE,102,2.0,4.9,24,0.00,,,-99.99,FreeWX 2.04,2013-05-02 17:46:00,
2013-05-02 13:51:00,63.1,25.7,30.15,ESE,114,2.0,5.4,24,0.00,,,-99.99,FreeWX 2.04,2013-05-02 17:51:00,
2013-05-02 13:56:00,62.8,24.4,30.15,ESE,104,2.0,5.4,23,0.00,,,-99.99,FreeWX 2.04,2013-05-02 17:56:00,
2013-05-02 14:01:00,62.8,25.5,30.15,East,90,2.0,5.4,24,0.00,,,-99.99,FreeWX 2.04,2013-05-02 18:01:00,
2013-05-02 14:06:00,62.4,24.1,30.15,East,99,3.0,6.3,23,0.00,,,-99.99,FreeWX 2.04,2013-05-02 18:06:00,
2013-05-02 14:11:00,62.4,25.2,30.15,East,85,3.0,4.9,24,0.00,,,-99.99,FreeWX 2.04,2013-05-02 18:11:00,
2013-05-02 14:16:00,64.0,25.5,30.15,ENE,77,2.0,5.4,23,0.00,,,-99.99,FreeWX 2.04,2013-05-02 18:16:00,
2013-05-02 14:21:00,63.3,25.0,30.15,East,91,2.0,5.8,23,0.00,,,-99.99,FreeWX 2.04,2013-05-02 18:21:00,
2013-05-02 14:26:00,63.1,24.8,30.15,East,85,2.0,4.9,23,0.00,,,-99.99,FreeWX 2.04,2013-05-02 18:26:00,
2013-05-02 14:31:00,61.9,21.6,30.15,ENE,68,2.0,5.8,21,0.00,,,-99.99,FreeWX 2.04,2013-05-02 18:31:00,
2013-05-02 14:36:00,61.9,23.7,30.15,East,79,2.0,6.7,23,0.00,,,-99.99,FreeWX 2.04,2013-05-02 18:36:00,
2013-05-02 14:41:00,61.9,23.7,30.15,East,101,3.0,6.3,23,0.00,,,-99.99,FreeWX 2.04,2013-05-02 18:41:00,
2013-05-02 14:46:00,62.1,23.9,30.15,ESE,104,3.0,5.4,23,0.00,,,-99.99,FreeWX 2.04,2013-05-02 18:46:00,
2013-05-02 14:51:00,62.2,23.9,30.15,East,96,2.0,4.9,23,0.00,,,-99.99,FreeWX 2.04,2013-05-02 18:51:00,
2013-05-02 14:56:00,63.9,22.1,30.15,ESE,104,1.0,6.7,20,0.00,,,-99.99,FreeWX 2.04,2013-05-02 18:56:00,
2013-05-02 15:01:00,64.6,25.9,30.15,ESE,110,2.0,4.5,23,0.00,,,-99.99,FreeWX 2.04,2013-05-02 19:01:00,
2013-05-02 15:06:00,65.7,23.5,30.15,ESE,117,2.0,6.3,20,0.00,,,-99.99,FreeWX 2.04,2013-05-02 19:06:00,
2013-05-02 15:11:00,66.4,24.1,30.15,SE,131,2.0,6.7,20,0.00,,,-99.99,FreeWX 2.04,2013-05-02 19:11:00,
2013-05-02 15:16:00,66.6,20.5,30.15,ESE,115,2.0,5.4,17,0.00,,,-99.99,FreeWX 2.04,2013-05-02 19:16:00,
2013-05-02 15:21:00,65.1,20.5,30.15,East,91,2.0,5.8,18,0.00,,,-99.99,FreeWX 2.04,2013-05-02 19:21:00,
2013-05-02 15:26:00,65.3,25.5,30.15,East,92,2.0,4.9,22,0.00,,,-99.99,FreeWX 2.04,2013-05-02 19:26:00,
2013-05-02 15:31:00,67.6,25.2,30.15,ESE,120,1.0,5.8,20,0.00,,,-99.99,FreeWX 2.04,2013-05-02 19:31:00,
2013-05-02 15:36:00,67.8,25.3,30.15,ESE,123,1.0,4.0,20,0.00,,,-99.99,FreeWX 2.04,2013-05-02 19:36:00,
2013-05-02 15:41:00,69.3,22.6,30.15,SE,140,1.0,6.3,17,0.00,,,-99.99,FreeWX 2.04,2013-05-02 19:41:00,
2013-05-02 15:46:00,70.0,23.2,30.15,SSE,164,2.0,5.4,17,0.00,,,-99.99,FreeWX 2.04,2013-05-02 19:46:00,
2013-05-02 15:51:00,68.0,21.6,30.12,SE,133,2.0,5.8,17,0.00,,,-99.99,FreeWX 2.04,2013-05-02 19:51:00,
2013-05-02 15:56:00,66.6,20.5,30.12,ESE,113,2.0,5.8,17,0.00,,,-99.99,FreeWX 2.04,2013-05-02 19:56:00,
2013-05-02 16:01:00,66.9,20.7,30.12,ESE,114,2.0,5.4,17,0.00,,,-99.99,FreeWX 2.04,2013-05-02 20:01:00,
2013-05-02 16:06:00,66.6,20.5,30.12,East,99,1.0,4.9,17,0.00,,,-99.99,FreeWX 2.04,2013-05-02 20:06:00,
2013-05-02 16:11:00,66.2,20.1,30.12,ESE,112,2.0,5.8,17,0.00,,,-99.99,FreeWX 2.04,2013-05-02 20:11:00,
2013-05-02 16:16:00,64.8,20.3,30.12,ESE,105,2.0,6.3,18,0.00,,,-99.99,FreeWX 2.04,2013-05-02 20:16:00,
2013-05-02 16:21:00,64.6,22.6,30.12,East,91,3.0,4.9,20,0.00,,,-99.99,FreeWX 2.04,2013-05-02 20:21:00,
2013-05-02 16:26:00,66.2,23.9,30.12,East,94,1.0,4.0,20,0.00,,,-99.99,FreeWX 2.04,2013-05-02 20:26:00,
2013-05-02 16:31:00,65.8,19.8,30.12,North,-999,0.0,5.4,17,0.00,,,-99.99,FreeWX 2.04,2013-05-02 20:31:00,
2013-05-02 16:36:00,65.8,19.8,30.12,ENE,64,1.0,5.4,17,0.00,,,-99.99,FreeWX 2.04,2013-05-02 20:36:00,
2013-05-02 16:41:00,65.5,23.4,30.12,SSE,155,2.0,7.8,20,0.00,,,-99.99,FreeWX 2.04,2013-05-02 20:41:00,
2013-05-02 16:46:00,64.9,20.5,30.12,ESE,123,4.0,8.7,18,0.00,,,-99.99,FreeWX 2.04,2013-05-02 20:46:00,
2013-05-02 16:51:00,64.2,22.3,30.09,SE,126,4.0,6.3,20,0.00,,,-99.99,FreeWX 2.04,2013-05-02 20:51:00,
2013-05-02 16:56:00,63.3,22.6,30.09,ESE,111,2.0,4.9,21,0.00,,,-99.99,FreeWX 2.04,2013-05-02 20:56:00,
2013-05-02 17:01:00,64.2,25.7,30.09,SE,136,2.0,4.9,23,0.00,,,-99.99,FreeWX 2.04,2013-05-02 21:01:00,
2013-05-02 17:06:00,65.8,25.9,30.09,North,-999,0.0,3.6,22,0.00,,,-99.99,FreeWX 2.04,2013-05-02 21:06:00,
2013-05-02 17:11:00,66.7,26.6,30.09,North,-999,0.0,2.7,22,0.00,,,-99.99,FreeWX 2.04,2013-05-02 21:11:00,
2013-05-02 17:16:00,66.7,24.4,30.09,North,-999,0.0,3.1,20,0.00,,,-99.99,FreeWX 2.04,2013-05-02 21:16:00,
2013-05-02 17:21:00,66.2,23.9,30.09,North,-999,0.0,3.6,20,0.00,,,-99.99,FreeWX 2.04,2013-05-02 21:21:00,
2013-05-02 17:26:00,66.0,23.7,30.09,North,-999,0.0,0.0,20,0.00,,,-99.99,FreeWX 2.04,2013-05-02 21:26:00,
2013-05-02 17:31:00,65.8,25.9,30.09,North,-999,0.0,0.0,22,0.00,,,-99.99,FreeWX 2.04,2013-05-02 21:31:00,
2013-05-02 17:36:00,65.1,26.4,30.09,North,-999,0.0,0.0,23,0.00,,,-99.99,FreeWX 2.04,2013-05-02 21:36:00,
2013-05-02 17:41:00,64.6,25.9,30.09,North,-999,0.0,2.7,23,0.00,,,-99.99,FreeWX 2.04,2013-05-02 21:41:00,
2013-05-02 17:46:00,64.4,25.9,30.09,North,-999,0.0,4.0,23,0.00,,,-99.99,FreeWX 2.04,2013-05-02 21:46:00,
2013-05-02 17:51:00,64.9,26.2,30.09,North,-999,0.0,3.1,23,0.00,,,-99.99,FreeWX 2.04,2013-05-02 21:51:00,
2013-05-02 17:56:00,65.5,26.8,30.09,North,-999,0.0,3.1,23,0.00,,,-99.99,FreeWX 2.04,2013-05-02 21:56:00,
2013-05-02 18:01:00,65.7,26.8,30.09,North,-999,0.0,0.0,23,0.00,,,-99.99,FreeWX 2.04,2013-05-02 22:01:00,
2013-05-02 18:06:00,65.5,26.8,30.09,North,-999,0.0,0.0,23,0.00,,,-99.99,FreeWX 2.04,2013-05-02 22:06:00,
2013-05-02 18:11:00,67.1,27.0,30.09,North,-999,0.0,0.0,22,0.00,,,-99.99,FreeWX 2.04,2013-05-02 22:11:00,
2013-05-02 18:16:00,68.0,27.7,30.09,North,-999,0.0,0.0,22,0.00,,,-99.99,FreeWX 2.04,2013-05-02 22:16:00,
2013-05-02 18:21:00,69.1,28.6,30.06,North,-999,0.0,0.0,22,0.00,,,-99.99,FreeWX 2.04,2013-05-02 22:21:00,
2013-05-02 18:26:00,69.8,29.3,30.06,North,-999,0.0,0.0,22,0.00,,,-99.99,FreeWX 2.04,2013-05-02 22:26:00,
2013-05-02 18:31:00,69.8,29.3,30.06,North,-999,0.0,0.0,22,0.00,,,-99.99,FreeWX 2.04,2013-05-02 22:31:00,
2013-05-02 18:36:00,68.0,25.5,30.09,North,-999,0.0,0.0,20,0.00,,,-99.99,FreeWX 2.04,2013-05-02 22:36:00,
2013-05-02 18:41:00,65.8,23.7,30.09,North,-999,0.0,0.0,20,0.00,,,-99.99,FreeWX 2.04,2013-05-02 22:41:00,
2013-05-02 18:46:00,64.4,25.9,30.09,North,-999,0.0,0.0,23,0.00,,,-99.99,FreeWX 2.04,2013-05-02 22:46:00,
2013-05-02 18:51:00,63.1,24.8,30.06,North,-999,0.0,0.0,23,0.00,,,-99.99,FreeWX 2.04,2013-05-02 22:51:00,
2013-05-02 18:56:00,62.4,24.1,30.06,North,-999,0.0,0.0,23,0.00,,,-99.99,FreeWX 2.04,2013-05-02 22:56:00,
2013-05-02 19:01:00,61.7,24.6,30.06,North,-999,0.0,0.0,24,0.00,,,-99.99,FreeWX 2.04,2013-05-02 23:01:00,
2013-05-02 19:06:00,61.5,25.3,30.06,North,-999,0.0,0.0,25,0.00,,,-99.99,FreeWX 2.04,2013-05-02 23:06:00,
2013-05-02 19:11:00,60.8,24.8,30.06,North,-999,0.0,4.0,25,0.00,,,-99.99,FreeWX 2.04,2013-05-02 23:11:00,
2013-05-02 19:16:00,60.1,24.1,30.06,North,-999,0.0,2.7,25,0.00,,,-99.99,FreeWX 2.04,2013-05-02 23:16:00,
2013-05-02 19:21:00,59.5,24.6,30.06,North,-999,0.0,0.0,26,0.00,,,-99.99,FreeWX 2.04,2013-05-02 23:21:00,
2013-05-02 19:26:00,59.2,24.3,30.06,North,-999,0.0,5.4,26,0.00,,,-99.99,FreeWX 2.04,2013-05-02 23:26:00,
2013-05-02 19:31:00,59.4,25.3,30.06,North,-999,0.0,3.1,27,0.00,,,-99.99,FreeWX 2.04,2013-05-02 23:31:00,
2013-05-02 19:36:00,59.7,25.7,30.06,North,-999,0.0,4.0,27,0.00,,,-99.99,FreeWX 2.04,2013-05-02 23:36:00,
2013-05-02 19:41:00,59.2,25.2,30.06,North,-999,0.0,3.1,27,0.00,,,-99.99,FreeWX 2.04,2013-05-02 23:41:00,
2013-05-02 19:46:00,58.6,25.7,30.06,North,-999,0.0,3.6,28,0.00,,,-99.99,FreeWX 2.04,2013-05-02 23:46:00,
2013-05-02 19:51:00,58.3,25.3,30.06,North,-999,0.0,4.5,28,0.00,,,-99.99,FreeWX 2.04,2013-05-02 23:51:00,
2013-05-02 19:56:00,57.9,25.9,30.06,North,-999,0.0,0.0,29,0.00,,,-99.99,FreeWX 2.04,2013-05-02 23:56:00,
2013-05-02 20:01:00,57.9,25.9,30.06,North,-999,0.0,0.0,29,0.00,,,-99.99,FreeWX 2.04,2013-05-03 00:01:00,
2013-05-02 20:06:00,57.6,26.4,30.06,North,-999,0.0,0.0,30,0.00,,,-99.99,FreeWX 2.04,2013-05-03 00:06:00,
2013-05-02 20:11:00,57.2,26.1,30.06,North,-999,0.0,0.0,30,0.00,,,-99.99,FreeWX 2.04,2013-05-03 00:11:00,
2013-05-02 20:16:00,57.0,26.6,30.06,North,-999,0.0,0.0,31,0.00,,,-99.99,FreeWX 2.04,2013-05-03 00:16:00,
2013-05-02 20:21:00,56.7,26.4,30.06,North,-999,0.0,0.0,31,0.00,,,-99.99,FreeWX 2.04,2013-05-03 00:21:00,
2013-05-02 20:26:00,56.3,26.1,30.06,North,-999,0.0,0.0,31,0.00,,,-99.99,FreeWX 2.04,2013-05-03 00:26:00,
2013-05-02 20:31:00,55.8,26.4,30.06,North,-999,0.0,0.0,32,0.00,,,-99.99,FreeWX 2.04,2013-05-03 00:31:00,
2013-05-02 20:36:00,55.2,26.6,30.06,North,-999,0.0,0.0,33,0.00,,,-99.99,FreeWX 2.04,2013-05-03 00:36:00,
2013-05-02 20:41:00,54.9,27.0,30.06,North,-999,0.0,0.0,34,0.00,,,-99.99,FreeWX 2.04,2013-05-03 00:41:00,
2013-05-02 20:46:00,54.3,27.3,30.06,North,-999,0.0,0.0,35,0.00,,,-99.99,FreeWX 2.04,2013-05-03 00:46:00,
2013-05-02 20:51:00,54.0,27.7,30.06,North,-999,0.0,0.0,36,0.00,,,-99.99,FreeWX 2.04,2013-05-03 00:51:00,
2013-05-02 20:56:00,53.6,27.3,30.06,North,-999,0.0,0.0,36,0.00,,,-99.99,FreeWX 2.04,2013-05-03 00:56:00,
2013-05-02 21:01:00,53.2,27.7,30.06,North,-999,0.0,4.0,37,0.00,,,-99.99,FreeWX 2.04,2013-05-03 01:01:00,
2013-05-02 21:06:00,52.9,27.3,30.06,North,-999,0.0,0.0,37,0.00,,,-99.99,FreeWX 2.04,2013-05-03 01:06:00,
2013-05-02 21:11:00,52.5,27.7,30.06,North,-999,0.0,0.0,38,0.00,,,-99.99,FreeWX 2.04,2013-05-03 01:11:00,
2013-05-02 21:16:00,52.2,28.0,30.06,North,-999,0.0,0.0,39,0.00,,,-99.99,FreeWX 2.04,2013-05-03 01:16:00,
2013-05-02 21:21:00,52.3,29.3,30.06,WSW,248,1.0,10.5,41,0.00,,,-99.99,FreeWX 2.04,2013-05-03 01:21:00,
2013-05-02 21:26:00,52.7,29.7,30.06,South,188,2.0,7.4,41,0.00,,,-99.99,FreeWX 2.04,2013-05-03 01:26:00,
2013-05-02 21:31:00,52.9,29.3,30.06,SSE,158,2.0,5.4,40,0.00,,,-99.99,FreeWX 2.04,2013-05-03 01:31:00,
2013-05-02 21:36:00,53.2,30.2,30.06,SSE,154,2.0,7.4,41,0.00,,,-99.99,FreeWX 2.04,2013-05-03 01:36:00,
2013-05-02 21:41:00,54.1,30.9,30.06,SSE,166,2.0,5.8,41,0.00,,,-99.99,FreeWX 2.04,2013-05-03 01:41:00,
2013-05-02 21:46:00,54.7,30.9,30.06,South,169,3.0,6.7,40,0.00,,,-99.99,FreeWX 2.04,2013-05-03 01:46:00,
2013-05-02 21:51:00,55.2,30.7,30.06,SSE,168,3.0,6.7,39,0.00,,,-99.99,FreeWX 2.04,2013-05-03 01:51:00,
2013-05-02 21:56:00,55.9,30.7,30.06,South,174,3.0,8.3,38,0.00,,,-99.99,FreeWX 2.04,2013-05-03 01:56:00,